Year,Month,Day,Hour,Minute,Value (Times are PST for temperature in C)
2010,05,22,00,00,4.00
2010,05,22,00,01,4.00
2010,05,22,00,02,4.00
2010,05,22,00,03,3.90
2010,05,22,00,04,3.90
2010,05,22,00,05,3.90
2010,05,22,00,06,3.90
2010,05,22,00,07,3.90
2010,05,22,00,08,3.90
2010,05,22,00,09,3.90
2010,05,22,00,10,3.90
2010,05,22,00,11,3.90
2010,05,22,00,12,3.80
2010,05,22,00,13,3.80
2010,05,22,00,14,3.80
2010,05,22,00,15,3.80
2010,05,22,00,16,3.80
2010,05,22,00,17,3.80
2010,05,22,00,18,3.80
2010,05,22,00,19,3.70
2010,05,22,00,20,3.70
2010,05,22,00,21,3.70
2010,05,22,00,22,3.70
2010,05,22,00,23,3.70
2010,05,22,00,24,3.70
2010,05,22,00,25,3.70
2010,05,22,00,26,3.70
2010,05,22,00,27,3.60
2010,05,22,00,28,3.60
2010,05,22,00,29,3.60
2010,05,22,00,30,3.60
2010,05,22,00,31,3.60
2010,05,22,00,32,3.60
2010,05,22,00,33,3.60
2010,05,22,00,34,3.50
2010,05,22,00,35,3.50
2010,05,22,00,36,3.50
2010,05,22,00,37,3.50
2010,05,22,00,38,3.50
2010,05,22,00,39,3.40
2010,05,22,00,40,3.40
2010,05,22,00,41,3.40
2010,05,22,00,42,3.40
2010,05,22,00,43,3.40
2010,05,22,00,44,3.40
2010,05,22,00,45,3.40
2010,05,22,00,46,3.40
2010,05,22,00,47,3.40
2010,05,22,00,48,3.30
2010,05,22,00,49,3.30
2010,05,22,00,50,3.30
2010,05,22,00,51,3.30
2010,05,22,00,52,3.30
2010,05,22,00,53,3.30
2010,05,22,00,54,3.30
2010,05,22,00,55,3.30
2010,05,22,00,56,3.30
2010,05,22,00,57,3.30
2010,05,22,00,58,3.30
2010,05,22,00,59,3.30
2010,05,22,01,00,3.30
2010,05,22,01,01,3.30
2010,05,22,01,02,3.20
2010,05,22,01,03,3.20
2010,05,22,01,04,3.20
2010,05,22,01,05,3.20
2010,05,22,01,06,3.20
2010,05,22,01,07,3.20
2010,05,22,01,08,3.20
2010,05,22,01,09,3.20
2010,05,22,01,10,3.20
2010,05,22,01,11,3.10
2010,05,22,01,12,3.10
2010,05,22,01,13,3.10
2010,05,22,01,14,3.10
2010,05,22,01,15,3.10
2010,05,22,01,16,3.10
2010,05,22,01,17,3.10
2010,05,22,01,18,3.10
2010,05,22,01,19,3.10
2010,05,22,01,20,3.00
2010,05,22,01,21,3.00
2010,05,22,01,22,3.00
2010,05,22,01,23,3.00
2010,05,22,01,24,2.90
2010,05,22,01,25,2.90
2010,05,22,01,26,2.90
2010,05,22,01,27,2.90
2010,05,22,01,28,2.90
2010,05,22,01,29,2.90
2010,05,22,01,30,2.90
2010,05,22,01,31,2.90
2010,05,22,01,32,2.90
2010,05,22,01,33,2.90
2010,05,22,01,34,2.90
2010,05,22,01,35,2.90
2010,05,22,01,36,2.90
2010,05,22,01,37,2.90
2010,05,22,01,38,2.80
2010,05,22,01,39,2.80
2010,05,22,01,40,2.80
2010,05,22,01,41,2.80
2010,05,22,01,42,2.80
2010,05,22,01,43,2.80
2010,05,22,01,44,2.80
2010,05,22,01,45,2.80
2010,05,22,01,46,2.80
2010,05,22,01,47,2.70
2010,05,22,01,48,2.70
2010,05,22,01,49,2.70
2010,05,22,01,50,2.70
2010,05,22,01,51,2.70
2010,05,22,01,52,2.70
2010,05,22,01,53,2.70
2010,05,22,01,54,2.70
2010,05,22,01,55,2.70
2010,05,22,01,56,2.70
2010,05,22,01,57,2.60
2010,05,22,01,58,2.60
2010,05,22,01,59,2.60
2010,05,22,02,00,2.60
2010,05,22,02,01,2.60
2010,05,22,02,02,2.60
2010,05,22,02,03,2.60
2010,05,22,02,04,2.60
2010,05,22,02,05,2.60
2010,05,22,02,06,2.60
2010,05,22,02,07,2.60
2010,05,22,02,08,2.60
2010,05,22,02,09,2.60
2010,05,22,02,10,2.60
2010,05,22,02,11,2.60
2010,05,22,02,12,2.60
2010,05,22,02,13,2.60
2010,05,22,02,14,2.60
2010,05,22,02,15,2.60
2010,05,22,02,16,2.60
2010,05,22,02,17,2.60
2010,05,22,02,18,2.60
2010,05,22,02,19,2.60
2010,05,22,02,20,2.60
2010,05,22,02,21,2.60
2010,05,22,02,22,2.50
2010,05,22,02,23,2.50
2010,05,22,02,24,2.50
2010,05,22,02,25,2.50
2010,05,22,02,26,2.50
2010,05,22,02,27,2.50
2010,05,22,02,28,2.50
2010,05,22,02,29,2.50
2010,05,22,02,30,2.50
2010,05,22,02,31,2.50
2010,05,22,02,32,2.50
2010,05,22,02,33,2.50
2010,05,22,02,34,2.50
2010,05,22,02,35,2.40
2010,05,22,02,36,2.40
2010,05,22,02,37,2.50
2010,05,22,02,38,2.40
2010,05,22,02,39,2.40
2010,05,22,02,40,2.40
2010,05,22,02,41,2.40
2010,05,22,02,42,2.40
2010,05,22,02,43,2.40
2010,05,22,02,44,2.40
2010,05,22,02,45,2.40
2010,05,22,02,46,2.40
2010,05,22,02,47,2.40
2010,05,22,02,48,2.40
2010,05,22,02,49,2.40
2010,05,22,02,50,2.40
2010,05,22,02,51,2.40
2010,05,22,02,52,2.40
2010,05,22,02,53,2.40
2010,05,22,02,54,2.40
2010,05,22,02,55,2.40
2010,05,22,02,56,2.40
2010,05,22,02,57,2.40
2010,05,22,02,58,2.40
2010,05,22,02,59,2.40
2010,05,22,03,00,2.40
2010,05,22,03,01,2.40
2010,05,22,03,02,2.40
2010,05,22,03,03,2.40
2010,05,22,03,04,2.40
2010,05,22,03,05,2.40
2010,05,22,03,06,2.40
2010,05,22,03,07,2.50
2010,05,22,03,08,2.50
2010,05,22,03,09,2.50
2010,05,22,03,10,2.50
2010,05,22,03,11,2.60
2010,05,22,03,12,2.60
2010,05,22,03,13,2.60
2010,05,22,03,14,2.60
2010,05,22,03,15,2.60
2010,05,22,03,16,2.60
2010,05,22,03,17,2.60
2010,05,22,03,18,2.70
2010,05,22,03,19,2.70
2010,05,22,03,20,2.70
2010,05,22,03,21,2.70
2010,05,22,03,22,2.70
2010,05,22,03,23,2.70
2010,05,22,03,24,2.80
2010,05,22,03,25,2.80
2010,05,22,03,26,2.80
2010,05,22,03,27,2.80
2010,05,22,03,28,2.80
2010,05,22,03,29,2.90
2010,05,22,03,30,2.90
2010,05,22,03,31,2.90
2010,05,22,03,32,2.90
2010,05,22,03,33,3.00
2010,05,22,03,34,3.00
2010,05,22,03,35,3.00
2010,05,22,03,36,3.00
2010,05,22,03,37,3.00
2010,05,22,03,38,3.00
2010,05,22,03,39,3.00
2010,05,22,03,40,3.00
2010,05,22,03,41,3.10
2010,05,22,03,42,3.00
2010,05,22,03,43,3.10
2010,05,22,03,44,3.10
2010,05,22,03,45,3.10
2010,05,22,03,46,3.10
2010,05,22,03,47,3.10
2010,05,22,03,48,3.10
2010,05,22,03,49,3.10
2010,05,22,03,50,3.10
2010,05,22,03,51,3.10
2010,05,22,03,52,3.10
2010,05,22,03,53,3.10
2010,05,22,03,54,3.10
2010,05,22,03,55,3.10
2010,05,22,03,56,3.10
2010,05,22,03,57,3.20
2010,05,22,03,58,3.20
2010,05,22,03,59,3.20
2010,05,22,04,00,3.20
2010,05,22,04,01,3.20
2010,05,22,04,02,3.20
2010,05,22,04,03,3.20
2010,05,22,04,04,3.20
2010,05,22,04,05,3.20
2010,05,22,04,06,3.20
2010,05,22,04,07,3.20
2010,05,22,04,08,3.10
2010,05,22,04,09,3.10
2010,05,22,04,10,3.10
2010,05,22,04,11,3.10
2010,05,22,04,12,3.10
2010,05,22,04,13,3.10
2010,05,22,04,14,3.10
2010,05,22,04,15,3.10
2010,05,22,04,16,3.00
2010,05,22,04,17,3.00
2010,05,22,04,18,3.00
2010,05,22,04,19,3.00
2010,05,22,04,20,2.90
2010,05,22,04,21,2.90
2010,05,22,04,22,2.90
2010,05,22,04,23,2.90
2010,05,22,04,24,2.90
2010,05,22,04,25,2.90
2010,05,22,04,26,2.90
2010,05,22,04,27,2.90
2010,05,22,04,28,2.90
2010,05,22,04,29,2.80
2010,05,22,04,30,2.80
2010,05,22,04,31,2.80
2010,05,22,04,32,2.80
2010,05,22,04,33,2.80
2010,05,22,04,34,2.80
2010,05,22,04,35,2.80
2010,05,22,04,36,2.80
2010,05,22,04,37,2.80
2010,05,22,04,38,2.80
2010,05,22,04,39,2.80
2010,05,22,04,40,2.80
2010,05,22,04,41,2.80
2010,05,22,04,42,2.70
2010,05,22,04,43,2.70
2010,05,22,04,44,2.70
2010,05,22,04,45,2.70
2010,05,22,04,46,2.70
2010,05,22,04,47,2.70
2010,05,22,04,48,2.70
2010,05,22,04,49,2.70
2010,05,22,04,50,2.70
2010,05,22,04,51,2.70
2010,05,22,04,52,2.70
2010,05,22,04,53,2.70
2010,05,22,04,54,2.70
2010,05,22,04,55,2.70
2010,05,22,04,56,2.70
2010,05,22,04,57,2.70
2010,05,22,04,58,2.80
2010,05,22,04,59,2.80
2010,05,22,05,00,2.80
2010,05,22,05,01,2.80
2010,05,22,05,02,2.80
2010,05,22,05,03,2.80
2010,05,22,05,04,2.80
2010,05,22,05,05,2.80
2010,05,22,05,06,2.80
2010,05,22,05,07,2.80
2010,05,22,05,08,2.80
2010,05,22,05,09,2.80
2010,05,22,05,10,2.80
2010,05,22,05,11,2.80
2010,05,22,05,12,2.80
2010,05,22,05,13,2.70
2010,05,22,05,14,2.70
2010,05,22,05,15,2.70
2010,05,22,05,16,2.70
2010,05,22,05,17,2.70
2010,05,22,05,18,2.70
2010,05,22,05,19,2.70
2010,05,22,05,20,2.80
2010,05,22,05,21,2.80
2010,05,22,05,22,2.90
2010,05,22,05,23,2.90
2010,05,22,05,24,2.90
2010,05,22,05,25,2.90
2010,05,22,05,26,2.90
2010,05,22,05,27,3.00
2010,05,22,05,28,3.00
2010,05,22,05,29,3.00
2010,05,22,05,30,3.10
2010,05,22,05,31,3.10
2010,05,22,05,32,3.10
2010,05,22,05,33,3.10
2010,05,22,05,34,3.20
2010,05,22,05,35,3.20
2010,05,22,05,36,3.20
2010,05,22,05,37,3.20
2010,05,22,05,38,3.20
2010,05,22,05,39,3.30
2010,05,22,05,40,3.30
2010,05,22,05,41,3.30
2010,05,22,05,42,3.20
2010,05,22,05,43,3.30
2010,05,22,05,44,3.20
2010,05,22,05,45,3.20
2010,05,22,05,46,3.20
2010,05,22,05,47,3.20
2010,05,22,05,48,3.20
2010,05,22,05,49,3.20
2010,05,22,05,50,3.20
2010,05,22,05,51,3.20
2010,05,22,05,52,3.20
2010,05,22,05,53,3.20
2010,05,22,05,54,3.30
2010,05,22,05,55,3.30
2010,05,22,05,56,3.20
2010,05,22,05,57,3.20
2010,05,22,05,58,3.30
2010,05,22,05,59,3.30
2010,05,22,06,00,3.30
2010,05,22,06,01,3.30
2010,05,22,06,02,3.30
2010,05,22,06,03,3.30
2010,05,22,06,04,3.30
2010,05,22,06,05,3.30
2010,05,22,06,06,3.30
2010,05,22,06,07,3.30
2010,05,22,06,08,3.30
2010,05,22,06,09,3.30
2010,05,22,06,10,3.30
2010,05,22,06,11,3.30
2010,05,22,06,12,3.30
2010,05,22,06,13,3.40
2010,05,22,06,14,3.40
2010,05,22,06,15,3.40
2010,05,22,06,16,3.40
2010,05,22,06,17,3.40
2010,05,22,06,18,3.40
2010,05,22,06,19,3.40
2010,05,22,06,20,3.40
2010,05,22,06,21,3.40
2010,05,22,06,22,3.40
2010,05,22,06,23,3.40
2010,05,22,06,24,3.40
2010,05,22,06,25,3.40
2010,05,22,06,26,3.40
2010,05,22,06,27,3.40
2010,05,22,06,28,3.40
2010,05,22,06,29,3.40
2010,05,22,06,30,3.40
2010,05,22,06,31,3.40
2010,05,22,06,32,3.40
2010,05,22,06,33,3.40
2010,05,22,06,34,3.40
2010,05,22,06,35,3.40
2010,05,22,06,36,3.40
2010,05,22,06,37,3.40
2010,05,22,06,38,3.40
2010,05,22,06,39,3.40
2010,05,22,06,40,3.40
2010,05,22,06,41,3.50
2010,05,22,06,42,3.50
2010,05,22,06,43,3.50
2010,05,22,06,44,3.50
2010,05,22,06,45,3.50
2010,05,22,06,46,3.60
2010,05,22,06,47,3.60
2010,05,22,06,48,3.60
2010,05,22,06,49,3.60
2010,05,22,06,50,3.60
2010,05,22,06,51,3.60
2010,05,22,06,52,3.60
2010,05,22,06,53,3.70
2010,05,22,06,54,3.70
2010,05,22,06,55,3.70
2010,05,22,06,56,3.70
2010,05,22,06,57,3.70
2010,05,22,06,58,3.70
2010,05,22,06,59,3.70
2010,05,22,07,00,3.70
2010,05,22,07,01,3.80
2010,05,22,07,02,3.80
2010,05,22,07,03,3.80
2010,05,22,07,04,3.80
2010,05,22,07,05,3.80
2010,05,22,07,06,3.80
2010,05,22,07,07,3.80
2010,05,22,07,08,3.80
2010,05,22,07,09,3.90
2010,05,22,07,10,3.90
2010,05,22,07,11,3.90
2010,05,22,07,12,4.00
2010,05,22,07,13,4.00
2010,05,22,07,14,4.00
2010,05,22,07,15,4.10
2010,05,22,07,16,4.10
2010,05,22,07,17,4.10
2010,05,22,07,18,4.20
2010,05,22,07,19,4.20
2010,05,22,07,20,4.20
2010,05,22,07,21,4.30
2010,05,22,07,22,4.30
2010,05,22,07,23,4.40
2010,05,22,07,24,4.50
2010,05,22,07,25,4.60
2010,05,22,07,26,4.70
2010,05,22,07,27,4.80
2010,05,22,07,28,4.80
2010,05,22,07,29,4.90
2010,05,22,07,30,5.00
2010,05,22,07,31,5.10
2010,05,22,07,32,5.10
2010,05,22,07,33,5.20
2010,05,22,07,34,5.30
2010,05,22,07,35,5.30
2010,05,22,07,36,5.40
2010,05,22,07,37,5.50
2010,05,22,07,38,5.50
2010,05,22,07,39,5.60
2010,05,22,07,40,5.70
2010,05,22,07,41,5.80
2010,05,22,07,42,5.90
2010,05,22,07,43,6.00
2010,05,22,07,44,6.20
2010,05,22,07,45,6.30
2010,05,22,07,46,6.40
2010,05,22,07,47,6.50
2010,05,22,07,48,6.60
2010,05,22,07,49,6.70
2010,05,22,07,50,6.90
2010,05,22,07,51,7.00
2010,05,22,07,52,7.10
2010,05,22,07,53,7.20
2010,05,22,07,54,7.30
2010,05,22,07,55,7.40
2010,05,22,07,56,7.50
2010,05,22,07,57,7.60
2010,05,22,07,58,7.70
2010,05,22,07,59,7.80
2010,05,22,08,00,7.90
2010,05,22,08,01,8.00
2010,05,22,08,02,8.10
2010,05,22,08,03,8.20
2010,05,22,08,04,8.30
2010,05,22,08,05,8.50
2010,05,22,08,06,8.60
2010,05,22,08,07,8.70
2010,05,22,08,08,8.80
2010,05,22,08,09,8.80
2010,05,22,08,10,8.90
2010,05,22,08,11,9.00
2010,05,22,08,12,9.10
2010,05,22,08,13,9.30
2010,05,22,08,14,9.40
2010,05,22,08,15,9.50
2010,05,22,08,16,9.60
2010,05,22,08,17,9.70
2010,05,22,08,18,9.90
2010,05,22,08,19,10.00
2010,05,22,08,20,10.00
2010,05,22,08,21,10.00
2010,05,22,08,22,10.00
2010,05,22,08,23,10.10
2010,05,22,08,24,10.10
2010,05,22,08,25,10.10
2010,05,22,08,26,10.10
2010,05,22,08,27,10.10
2010,05,22,08,28,10.20
2010,05,22,08,29,10.20
2010,05,22,08,30,10.20
2010,05,22,08,31,10.20
2010,05,22,08,32,10.30
2010,05,22,08,33,10.30
2010,05,22,08,34,10.40
2010,05,22,08,35,10.50
2010,05,22,08,36,10.50
2010,05,22,08,37,10.50
2010,05,22,08,38,10.40
2010,05,22,08,39,10.40
2010,05,22,08,40,10.40
2010,05,22,08,41,10.40
2010,05,22,08,42,10.40
2010,05,22,08,43,10.50
2010,05,22,08,44,10.60
2010,05,22,08,45,10.60
2010,05,22,08,46,10.70
2010,05,22,08,47,10.80
2010,05,22,08,48,10.80
2010,05,22,08,49,10.80
2010,05,22,08,50,10.80
2010,05,22,08,51,10.80
2010,05,22,08,52,10.80
2010,05,22,08,53,10.90
2010,05,22,08,54,11.00
2010,05,22,08,55,11.00
2010,05,22,08,56,11.10
2010,05,22,08,57,11.20
2010,05,22,08,58,11.30
2010,05,22,08,59,11.40
2010,05,22,09,00,11.50
2010,05,22,09,01,11.50
2010,05,22,09,02,11.60
2010,05,22,09,03,11.60
2010,05,22,09,04,11.60
2010,05,22,09,05,11.60
2010,05,22,09,06,11.50
2010,05,22,09,07,11.50
2010,05,22,09,08,11.50
2010,05,22,09,09,11.60
2010,05,22,09,10,11.60
2010,05,22,09,11,11.60
2010,05,22,09,12,11.60
2010,05,22,09,13,11.60
2010,05,22,09,14,11.70
2010,05,22,09,15,11.70
2010,05,22,09,16,11.70
2010,05,22,09,17,11.80
2010,05,22,09,18,11.80
2010,05,22,09,19,11.80
2010,05,22,09,20,11.80
2010,05,22,09,21,11.80
2010,05,22,09,22,11.90
2010,05,22,09,23,11.90
2010,05,22,09,24,11.90
2010,05,22,09,25,12.00
2010,05,22,09,26,12.10
2010,05,22,09,27,12.10
2010,05,22,09,28,12.20
2010,05,22,09,29,12.20
2010,05,22,09,30,12.30
2010,05,22,09,31,12.30
2010,05,22,09,32,12.30
2010,05,22,09,33,12.30
2010,05,22,09,34,12.30
2010,05,22,09,35,12.30
2010,05,22,09,36,12.30
2010,05,22,09,37,12.20
2010,05,22,09,38,12.30
2010,05,22,09,39,12.30
2010,05,22,09,40,12.40
2010,05,22,09,41,12.40
2010,05,22,09,42,12.40
2010,05,22,09,43,12.30
2010,05,22,09,44,12.30
2010,05,22,09,45,12.30
2010,05,22,09,46,12.20
2010,05,22,09,47,12.20
2010,05,22,09,48,12.10
2010,05,22,09,49,12.00
2010,05,22,09,50,11.90
2010,05,22,09,51,11.90
2010,05,22,09,52,11.80
2010,05,22,09,53,11.80
2010,05,22,09,54,11.80
2010,05,22,09,55,11.80
2010,05,22,09,56,11.90
2010,05,22,09,57,12.00
2010,05,22,09,58,12.10
2010,05,22,09,59,12.20
2010,05,22,10,00,12.20
2010,05,22,10,01,12.20
2010,05,22,10,02,12.10
2010,05,22,10,03,12.10
2010,05,22,10,04,12.10
2010,05,22,10,05,12.00
2010,05,22,10,06,11.90
2010,05,22,10,07,11.90
2010,05,22,10,08,11.90
2010,05,22,10,09,11.80
2010,05,22,10,10,11.70
2010,05,22,10,11,11.60
2010,05,22,10,12,11.60
2010,05,22,10,13,11.50
2010,05,22,10,14,11.50
2010,05,22,10,15,11.40
2010,05,22,10,16,11.40
2010,05,22,10,17,11.40
2010,05,22,10,18,11.50
2010,05,22,10,19,11.60
2010,05,22,10,20,11.60
2010,05,22,10,21,11.70
2010,05,22,10,22,11.80
2010,05,22,10,23,11.90
2010,05,22,10,24,11.90
2010,05,22,10,25,11.90
2010,05,22,10,26,11.90
2010,05,22,10,27,11.90
2010,05,22,10,28,11.80
2010,05,22,10,29,11.80
2010,05,22,10,30,11.70
2010,05,22,10,31,11.70
2010,05,22,10,32,11.70
2010,05,22,10,33,11.70
2010,05,22,10,34,11.70
2010,05,22,10,35,11.70
2010,05,22,10,36,11.70
2010,05,22,10,37,11.70
2010,05,22,10,38,11.70
2010,05,22,10,39,11.80
2010,05,22,10,40,11.90
2010,05,22,10,41,12.00
2010,05,22,10,42,12.10
2010,05,22,10,43,12.20
2010,05,22,10,44,12.20
2010,05,22,10,45,12.30
2010,05,22,10,46,12.40
2010,05,22,10,47,12.40
2010,05,22,10,48,12.40
2010,05,22,10,49,12.50
2010,05,22,10,50,12.50
2010,05,22,10,51,12.60
2010,05,22,10,52,12.50
2010,05,22,10,53,12.50
2010,05,22,10,54,12.40
2010,05,22,10,55,12.40
2010,05,22,10,56,12.30
2010,05,22,10,57,12.30
2010,05,22,10,58,12.30
2010,05,22,10,59,12.30
2010,05,22,11,00,12.30
2010,05,22,11,01,12.30
2010,05,22,11,02,12.30
2010,05,22,11,03,12.40
2010,05,22,11,04,12.40
2010,05,22,11,05,12.40
2010,05,22,11,06,12.40
2010,05,22,11,07,12.40
2010,05,22,11,08,12.40
2010,05,22,11,09,12.40
2010,05,22,11,10,12.40
2010,05,22,11,11,12.40
2010,05,22,11,12,12.40
2010,05,22,11,13,12.40
2010,05,22,11,14,12.40
2010,05,22,11,15,12.30
2010,05,22,11,16,12.30
2010,05,22,11,17,12.30
2010,05,22,11,18,12.30
2010,05,22,11,19,12.30
2010,05,22,11,20,12.30
2010,05,22,11,21,12.30
2010,05,22,11,22,12.30
2010,05,22,11,23,12.30
2010,05,22,11,24,12.30
2010,05,22,11,25,12.40
2010,05,22,11,26,12.40
2010,05,22,11,27,12.50
2010,05,22,11,28,12.60
2010,05,22,11,29,12.70
2010,05,22,11,30,12.70
2010,05,22,11,31,12.80
2010,05,22,11,32,12.80
2010,05,22,11,33,12.90
2010,05,22,11,34,12.90
2010,05,22,11,35,13.00
2010,05,22,11,36,13.10
2010,05,22,11,37,13.10
2010,05,22,11,38,13.20
2010,05,22,11,39,13.20
2010,05,22,11,40,13.10
2010,05,22,11,41,13.10
2010,05,22,11,42,13.10
2010,05,22,11,43,13.10
2010,05,22,11,44,13.10
2010,05,22,11,45,13.00
2010,05,22,11,46,13.00
2010,05,22,11,47,12.90
2010,05,22,11,48,12.90
2010,05,22,11,49,12.90
2010,05,22,11,50,12.90
2010,05,22,11,51,12.80
2010,05,22,11,52,12.80
2010,05,22,11,53,12.70
2010,05,22,11,54,12.60
2010,05,22,11,55,12.40
2010,05,22,11,56,12.30
2010,05,22,11,57,12.20
2010,05,22,11,58,12.10
2010,05,22,11,59,12.00
2010,05,22,12,00,12.00
2010,05,22,12,01,11.90
2010,05,22,12,02,12.00
2010,05,22,12,03,12.00
2010,05,22,12,04,12.00
2010,05,22,12,05,12.10
2010,05,22,12,06,12.10
2010,05,22,12,07,12.20
2010,05,22,12,08,12.20
2010,05,22,12,09,12.20
2010,05,22,12,10,12.30
2010,05,22,12,11,12.40
2010,05,22,12,12,12.50
2010,05,22,12,13,12.60
2010,05,22,12,14,12.60
2010,05,22,12,15,12.50
2010,05,22,12,16,12.50
2010,05,22,12,17,12.40
2010,05,22,12,18,12.30
2010,05,22,12,19,12.30
2010,05,22,12,20,12.20
2010,05,22,12,21,12.20
2010,05,22,12,22,12.20
2010,05,22,12,23,12.20
2010,05,22,12,24,12.20
2010,05,22,12,25,12.20
2010,05,22,12,26,12.30
2010,05,22,12,27,12.40
2010,05,22,12,28,12.50
2010,05,22,12,29,12.50
2010,05,22,12,30,12.50
2010,05,22,12,31,12.50
2010,05,22,12,32,12.40
2010,05,22,12,33,12.30
2010,05,22,12,34,12.20
2010,05,22,12,35,12.10
2010,05,22,12,36,11.90
2010,05,22,12,37,11.70
2010,05,22,12,38,11.60
2010,05,22,12,39,11.50
2010,05,22,12,40,11.40
2010,05,22,12,41,11.30
2010,05,22,12,42,11.20
2010,05,22,12,43,11.10
2010,05,22,12,44,11.00
2010,05,22,12,45,10.90
2010,05,22,12,46,10.80
2010,05,22,12,47,10.80
2010,05,22,12,48,10.80
2010,05,22,12,49,10.70
2010,05,22,12,50,10.70
2010,05,22,12,51,10.70
2010,05,22,12,52,10.60
2010,05,22,12,53,10.60
2010,05,22,12,54,10.60
2010,05,22,12,55,10.60
2010,05,22,12,56,10.50
2010,05,22,12,57,10.50
2010,05,22,12,58,10.50
2010,05,22,12,59,10.50
2010,05,22,13,00,10.50
2010,05,22,13,01,10.50
2010,05,22,13,02,10.50
2010,05,22,13,03,10.50
2010,05,22,13,04,10.50
2010,05,22,13,05,10.40
2010,05,22,13,06,10.40
2010,05,22,13,07,10.40
2010,05,22,13,08,10.30
2010,05,22,13,09,10.30
2010,05,22,13,10,10.30
2010,05,22,13,11,10.30
2010,05,22,13,12,10.30
2010,05,22,13,13,10.30
2010,05,22,13,14,10.30
2010,05,22,13,15,10.30
2010,05,22,13,16,10.40
2010,05,22,13,17,10.40
2010,05,22,13,18,10.40
2010,05,22,13,19,10.40
2010,05,22,13,20,10.40
2010,05,22,13,21,10.40
2010,05,22,13,22,10.40
2010,05,22,13,23,10.40
2010,05,22,13,24,10.40
2010,05,22,13,25,10.40
2010,05,22,13,26,10.40
2010,05,22,13,27,10.40
2010,05,22,13,28,10.40
2010,05,22,13,29,10.40
2010,05,22,13,30,10.40
2010,05,22,13,31,10.40
2010,05,22,13,32,10.40
2010,05,22,13,33,10.40
2010,05,22,13,34,10.40
2010,05,22,13,35,10.40
2010,05,22,13,36,10.40
2010,05,22,13,37,10.50
2010,05,22,13,38,10.60
2010,05,22,13,39,10.60
2010,05,22,13,40,10.60
2010,05,22,13,41,10.70
2010,05,22,13,42,10.70
2010,05,22,13,43,10.70
2010,05,22,13,44,10.70
2010,05,22,13,45,10.70
2010,05,22,13,46,10.70
2010,05,22,13,47,10.70
2010,05,22,13,48,10.70
2010,05,22,13,49,10.70
2010,05,22,13,50,10.70
2010,05,22,13,51,10.70
2010,05,22,13,52,10.70
2010,05,22,13,53,10.70
2010,05,22,13,54,10.80
2010,05,22,13,55,10.80
2010,05,22,13,56,10.80
2010,05,22,13,57,10.80
2010,05,22,13,58,10.70
2010,05,22,13,59,10.70
2010,05,22,14,00,10.70
2010,05,22,14,01,10.70
2010,05,22,14,02,10.70
2010,05,22,14,03,10.70
2010,05,22,14,04,10.80
2010,05,22,14,05,10.80
2010,05,22,14,06,10.80
2010,05,22,14,07,10.90
2010,05,22,14,08,11.00
2010,05,22,14,09,11.00
2010,05,22,14,10,11.10
2010,05,22,14,11,11.10
2010,05,22,14,12,11.10
2010,05,22,14,13,11.10
2010,05,22,14,14,11.10
2010,05,22,14,15,11.10
2010,05,22,14,16,11.20
2010,05,22,14,17,11.20
2010,05,22,14,18,11.30
2010,05,22,14,19,11.30
2010,05,22,14,20,11.30
2010,05,22,14,21,11.30
2010,05,22,14,22,11.40
2010,05,22,14,23,11.40
2010,05,22,14,24,11.50
2010,05,22,14,25,11.50
2010,05,22,14,26,11.50
2010,05,22,14,27,11.60
2010,05,22,14,28,11.60
2010,05,22,14,29,11.70
2010,05,22,14,30,11.70
2010,05,22,14,31,11.70
2010,05,22,14,32,11.70
2010,05,22,14,33,11.60
2010,05,22,14,34,11.60
2010,05,22,14,35,11.60
2010,05,22,14,36,11.60
2010,05,22,14,37,11.60
2010,05,22,14,38,11.60
2010,05,22,14,39,11.60
2010,05,22,14,40,11.70
2010,05,22,14,41,11.70
2010,05,22,14,42,11.80
2010,05,22,14,43,11.80
2010,05,22,14,44,11.90
2010,05,22,14,45,12.00
2010,05,22,14,46,12.10
2010,05,22,14,47,12.10
2010,05,22,14,48,12.20
2010,05,22,14,49,12.20
2010,05,22,14,50,12.30
2010,05,22,14,51,12.40
2010,05,22,14,52,12.50
2010,05,22,14,53,12.60
2010,05,22,14,54,12.80
2010,05,22,14,55,12.90
2010,05,22,14,56,13.00
2010,05,22,14,57,13.00
2010,05,22,14,58,13.10
2010,05,22,14,59,13.10
2010,05,22,15,00,13.20
2010,05,22,15,01,13.20
2010,05,22,15,02,13.30
2010,05,22,15,03,13.30
2010,05,22,15,04,13.40
2010,05,22,15,05,13.50
2010,05,22,15,06,13.50
2010,05,22,15,07,13.50
2010,05,22,15,08,13.40
2010,05,22,15,09,13.40
2010,05,22,15,10,13.30
2010,05,22,15,11,13.30
2010,05,22,15,12,13.30
2010,05,22,15,13,13.30
2010,05,22,15,14,13.30
2010,05,22,15,15,13.30
2010,05,22,15,16,13.30
2010,05,22,15,17,13.30
2010,05,22,15,18,13.30
2010,05,22,15,19,13.30
2010,05,22,15,20,13.30
2010,05,22,15,21,13.30
2010,05,22,15,22,13.30
2010,05,22,15,23,13.30
2010,05,22,15,24,13.40
2010,05,22,15,25,13.40
2010,05,22,15,26,13.40
2010,05,22,15,27,13.40
2010,05,22,15,28,13.40
2010,05,22,15,29,13.40
2010,05,22,15,30,13.40
2010,05,22,15,31,13.40
2010,05,22,15,32,13.40
2010,05,22,15,33,13.30
2010,05,22,15,34,13.30
2010,05,22,15,35,13.40
2010,05,22,15,36,13.40
2010,05,22,15,37,13.40
2010,05,22,15,38,13.40
2010,05,22,15,39,13.40
2010,05,22,15,40,13.50
2010,05,22,15,41,13.50
2010,05,22,15,42,13.50
2010,05,22,15,43,13.60
2010,05,22,15,44,13.60
2010,05,22,15,45,13.70
2010,05,22,15,46,13.70
2010,05,22,15,47,13.70
2010,05,22,15,48,13.70
2010,05,22,15,49,13.80
2010,05,22,15,50,13.80
2010,05,22,15,51,13.80
2010,05,22,15,52,13.80
2010,05,22,15,53,13.90
2010,05,22,15,54,13.90
2010,05,22,15,55,13.90
2010,05,22,15,56,13.90
2010,05,22,15,57,13.90
2010,05,22,15,58,13.80
2010,05,22,15,59,13.80
2010,05,22,16,00,13.80
2010,05,22,16,01,13.70
2010,05,22,16,02,13.70
2010,05,22,16,03,13.70
2010,05,22,16,04,13.70
2010,05,22,16,05,13.60
2010,05,22,16,06,13.60
2010,05,22,16,07,13.50
2010,05,22,16,08,13.60
2010,05,22,16,09,13.60
2010,05,22,16,10,13.60
2010,05,22,16,11,13.60
2010,05,22,16,12,13.60
2010,05,22,16,13,13.60
2010,05,22,16,14,13.50
2010,05,22,16,15,13.50
2010,05,22,16,16,13.40
2010,05,22,16,17,13.40
2010,05,22,16,18,13.30
2010,05,22,16,19,13.20
2010,05,22,16,20,13.10
2010,05,22,16,21,13.00
2010,05,22,16,22,12.90
2010,05,22,16,23,12.80
2010,05,22,16,24,12.80
2010,05,22,16,25,12.80
2010,05,22,16,26,12.80
2010,05,22,16,27,12.80
2010,05,22,16,28,12.70
2010,05,22,16,29,12.70
2010,05,22,16,30,12.70
2010,05,22,16,31,12.70
2010,05,22,16,32,12.70
2010,05,22,16,33,12.80
2010,05,22,16,34,12.80
2010,05,22,16,35,12.90
2010,05,22,16,36,12.90
2010,05,22,16,37,13.00
2010,05,22,16,38,13.00
2010,05,22,16,39,13.10
2010,05,22,16,40,13.00
2010,05,22,16,41,13.00
2010,05,22,16,42,13.00
2010,05,22,16,43,12.90
2010,05,22,16,44,12.90
2010,05,22,16,45,12.90
2010,05,22,16,46,12.80
2010,05,22,16,47,12.80
2010,05,22,16,48,12.70
2010,05,22,16,49,12.70
2010,05,22,16,50,12.70
2010,05,22,16,51,12.70
2010,05,22,16,52,12.70
2010,05,22,16,53,12.70
2010,05,22,16,54,12.70
2010,05,22,16,55,12.70
2010,05,22,16,56,12.70
2010,05,22,16,57,12.70
2010,05,22,16,58,12.80
2010,05,22,16,59,12.80
2010,05,22,17,00,12.80
2010,05,22,17,01,12.70
2010,05,22,17,02,12.70
2010,05,22,17,03,12.60
2010,05,22,17,04,12.60
2010,05,22,17,05,12.50
2010,05,22,17,06,12.50
2010,05,22,17,07,12.40
2010,05,22,17,08,12.40
2010,05,22,17,09,12.50
2010,05,22,17,10,12.50
2010,05,22,17,11,12.50
2010,05,22,17,12,12.50
2010,05,22,17,13,12.50
2010,05,22,17,14,12.50
2010,05,22,17,15,12.50
2010,05,22,17,16,12.40
2010,05,22,17,17,12.40
2010,05,22,17,18,12.30
2010,05,22,17,19,12.30
2010,05,22,17,20,12.20
2010,05,22,17,21,12.20
2010,05,22,17,22,12.20
2010,05,22,17,23,12.10
2010,05,22,17,24,12.10
2010,05,22,17,25,12.10
2010,05,22,17,26,12.10
2010,05,22,17,27,12.10
2010,05,22,17,28,12.10
2010,05,22,17,29,12.10
2010,05,22,17,30,12.00
2010,05,22,17,31,12.00
2010,05,22,17,32,11.90
2010,05,22,17,33,11.90
2010,05,22,17,34,11.90
2010,05,22,17,35,11.90
2010,05,22,17,36,11.90
2010,05,22,17,37,11.90
2010,05,22,17,38,11.90
2010,05,22,17,39,11.80
2010,05,22,17,40,11.80
2010,05,22,17,41,11.80